Regional Weather Roundup
Issued by NWS Binghamton, NY

Home | Current Version | Previous Version | Text Only | Print | Product List | Glossary On
Versions: 1 2 3 4 5 6 7 8 9 10 11 12 13 14 15 16 17 18 19 20 21 22 23 24 25 26 27
000
ASUS41 KBGM 031910
RWRBGM

REGIONAL WEATHER ROUNDUP
NATIONAL WEATHER SERVICE BINGHAMTON NY
200 PM EST SAT DEC 03 2016

Note: "fair" indicates few or no clouds below 12,000 feet with no
significant weather and/or obstructions to visibility.

* = Station(s) that does not report precipitation, such as rain,
snow, etc, also no thunder or fog.

NYZ009-015>018-022>025-036-037-044>046-055>057-062-032000
...Central New York...

CITY           SKY/WX    TMP DP  RH WIND       PRES   REMARKS
Binghamton     LGT SNOW  32  31  96 NW13      30.03F FOG     WCI  22
Cortland       CLOUDY    36  32  87 NW7G22    30.07R FOG     WCI  30
Dansville      CLOUDY    40  28  62 NW16      30.11F WCI  31
Elmira         CLOUDY    40  28  62 NW9       30.09F WCI  34
Seneca Falls   CLOUDY    39  34  81 W14G21    30.11S WCI  31
Ithaca         LGT SNOW  35  33  92 NW14G21   30.08F FOG     WCI  26
Hamilton       CLOUDY    34  28  80 NW8       30.04F WCI  27
Monticello     CLOUDY    37  25  60 W17G26    30.01S WCI  28
Norwich        FLURRIES  36  28  75 NW7       30.06R WCI  30
Oneonta        FLURRIES  32  27  80 NW8       30.00S WCI  25
Penn Yan       CLOUDY    38  31  76 NW7       30.10F WCI  33
Rome           CLOUDY    35  32  88 W13       30.08S WCI  26
Sidney         LGT RAIN  36  30  80 NW8       30.05S WCI  29
Syracuse       FLURRIES  36  31  82 W16       30.08F WCI  26
$$

PAZ038>040-043-044-047-048-072-032000
...Northeast Pennsylvania...

CITY           SKY/WX    TMP DP  RH WIND       PRES   REMARKS
Hazleton       CLOUDY    39  28  65 W17G28    30.07S WCI  30
Scranton       CLOUDY    42  28  57 W14G22    30.06F
$$
&&
KEY
WCI = Wind Chill Index
VSB = Visibility
HX  = Heat Index
$$




USA.gov is the U.S. government's official web portal to all federal, state and local government web resources and services.